Weather Roundup
Issued by NWS Chicago, IL

Home | Current Version | Previous Version | Text Only | Print | Product List | Glossary On
Versions: 1 2 3 4 5 6 7 8 9 10 11 12 13 14 15 16 17 18 19 20 21 22 23 24 25 26 27 28 29 30 31 32 33 34 35 36 37 38 39 40 41 42 43 44 45 46 47 48 49 50
000
NZUS59 KLOT 241009
HRRLOT

CHICAGO AREA WEATHER ROUNDUP
NATIONAL WEATHER SERVICE CHICAGO/ROMEOVILLE IL
500 AM CDT SUN JUL 24 2016

NOTE: "FAIR" INDICATES FEW OR NO CLOUDS BELOW 12,000 FEET WITH NO
SIGNIFICANT WEATHER AND/OR OBSTRUCTIONS TO VISIBILITY.

* THESE STATIONS ARE NOT UNDER NWS QUALITY CONTROL. THEY ALSO MAY NOT
  REPORT WEATHER SUCH AS PRECIPITATION OR FOG.

ILZ005-006-012>014-019>023-241100-
NORTHEAST ILLINOIS

CITY           SKY/WX    TMP DP  RH WIND       PRES   REMARKS
OHARE          MOCLDY    71  69  93 S6        29.91R
MIDWAY         MOCLDY    73  69  87 S7        29.91R
AURORA         CLEAR     72  69  90 S6        29.91S
LANSING*       PTCLDY    70  69  95 S7        29.93R
JOLIET*        PTCLDY    72  71  96 S3        29.93R
WAUKEGAN       CLOUDY    72  69  90 S10       29.87F
DUPAGE AIRPORT PTCLDY    71  68  90 S8        29.91S
WHEELING       CLOUDY    71  70  96 S8        29.90F
MORRIS*        PTCLDY    71  70  96 S3        29.91S
LEWIS AIRPORT* PTCLDY    70  67  90 S6        29.92S
NORTHERLY ISL    N/A     72  68  87 S2          N/A
$$

WIZ051-052-058>065-066-070>072-241100-
SOUTHEAST WISCONSIN

CITY           SKY/WX    TMP DP  RH WIND       PRES   REMARKS
MILWAUKEE      PTCLDY    73  69  87 SW12      29.85F
KENOSHA*       CLOUDY    71  69  93 S6        29.88F
RACINE*        CLOUDY    72  68  87 S8        29.88F
BURLINGTON     PTCLDY    70  69  97 S7        29.87F
WAUKESHA       CLEAR     68  68 100 S6        29.86F
$$

INZ001>003-010>013-019-020-241100-
NORTHWEST INDIANA

CITY           SKY/WX    TMP DP  RH WIND       PRES   REMARKS
GARY*          MOCLDY    72 N/A N/A S6        29.92S
MICHIGAN CITY* NOT AVBL
RENSSELAER*    NOT AVBL
VALPARAISO     CLOUDY    71  69  93 S5        29.95R
$$

LMZ740>746-241100-
SOUTHERN LAKE MICHIGAN

STATION/POSITION TIME  SKY/WX   TEMP WIND        PRES    VSBY
                                AIR  DIR/SP/G
                 (UTC)          (F)  (DEG/KT/KT) (MB)    (MI)
HARRISON CRIB    0900            73  200/ 11/ 12   N/A
BURNHAM HARBOR   1000            72  190/  2/  7   N/A
CALUMET HARBOR   0900            72  180/  6/  8 1012.3F
BURNS HARBOR     0903            72  190/  5/ 10 1013.5F
MICHIGAN CITY    0900            73  130/  9/ 11   N/A
$$

ABBREVIATIONS USED IN REMARKS
   TC - TEMPERATURE IN CELSIUS
  WCI - WIND CHILL INDEX
   HX - HEAT INDEX
  VSB - VISIBILITY
$$




USA.gov is the U.S. government's official web portal to all federal, state and local government web resources and services.